Flight Track Log - Related Links

Times and Time Zones

All times are in EDT time to prevent confusion due to time zone crossing. See the SWA407 flight status page for this flight to view local times or setup timezone preferences in your user account.

Time Position Orientation Groundspeed Altitude Reporting Facility
EDT Latitude Longitude Course Direction KTS MPH feet Rate Location/Type
Thu 11:01:35 PM 37.6878 -122.3681 355° North 209 241 3,000  Level Oakland Center
Thu 11:02:01 PM 37.7000 -122.4000 296° West 228 262 5,200 3,675 Climbing Northern Cal TRACON
Thu 11:02:55 PM 37.6500 -122.4333 208° Southwest 233 268 7,900 2,625 Climbing Northern Cal TRACON
Thu 11:03:37 PM 37.6000 -122.4369 183° South 237 273 9,400 1,981 Climbing Oakland Center
Thu 11:04:38 PM 37.5161 -122.4553 190° South 304 350 11,300 2,311 Climbing Oakland Center
Thu 11:05:39 PM 37.4178 -122.4756 189° South 353 406 14,100 2,951 Climbing Oakland Center
Thu 11:06:40 PM 37.3128 -122.4975 189° South 380 437 17,300 2,976 Climbing Oakland Center
Thu 11:07:42 PM 37.2022 -122.5208 190° South 400 460 20,200 2,732 Climbing Oakland Center
Thu 11:08:43 PM 37.0875 -122.5447 189° South 416 479 22,900 2,508 Climbing Oakland Center
Thu 11:09:44 PM 36.9692 -122.5697 190° South 430 495 25,300 2,213 Climbing Oakland Center
Thu 11:10:45 PM 36.8472 -122.5436 170° South 444 511 27,400 2,016 Climbing Oakland Center
Thu 11:11:46 PM 36.7239 -122.5119 168° South 451 519 29,400 1,820 Climbing Oakland Center
Thu 11:12:47 PM 36.5975 -122.4789 168° South 463 533 31,100 2,115 Climbing Oakland Center
Thu 11:13:48 PM 36.4450 -122.4381 168° South 471 542 33,700 2,361 Climbing Oakland Center
Thu 11:14:49 PM 36.3544 -122.3361 138° Southeast 444 511 35,900 1,475 Climbing Oakland Center
Thu 11:15:50 PM 36.2742 -122.2206 131° Southeast 444 511 36,700 927 Climbing Oakland Center
Thu 11:16:52 PM 36.1919 -122.0989 130° Southeast 458 527 37,800 1,073 Climbing Oakland Center
Thu 11:17:53 PM 36.1083 -121.9808 131° Southeast 458 527 38,900 590 Climbing Oakland Center
Thu 11:18:54 PM 36.0275 -121.8625 130° Southeast 454 522 39,000 49 Climbing Oakland Center
Thu 11:19:55 PM 35.9406 -121.7367 130° Southeast 456 525 39,000  Level Oakland Center
Thu 11:20:56 PM 35.8572 -121.6194 131° Southeast 456 525 39,000  Level Oakland Center
Thu 11:21:57 PM 35.7756 -121.5003 130° Southeast 457 526 39,000  Level Oakland Center
Thu 11:22:58 PM 35.6919 -121.3817 131° Southeast 459 528 39,000  Level Oakland Center
Thu 11:23:59 PM 35.6094 -121.2631 131° Southeast 459 528 39,000  Level Oakland Center
Thu 11:25:00 PM 35.5253 -121.1456 131° Southeast 459 528 39,000  Level Oakland Center
Thu 11:26:01 PM 35.4481 -121.0217 127° Southeast 459 528 39,000  Level Oakland Center
Thu 11:27:02 PM 35.3619 -120.8683 125° Southeast 459 528 39,000  Level Oakland Center
Thu 11:28:13 PM 35.2819 -120.7281 125° Southeast 458 527 39,000  Level Los Angeles Center
Thu 11:29:14 PM 35.2086 -120.5986 125° Southeast 460 529 39,000  Level Los Angeles Center
Thu 11:30:16 PM 35.1353 -120.4686 125° Southeast 462 532 39,000  Level Los Angeles Center
Thu 11:31:18 PM 35.0603 -120.3386 125° Southeast 465 535 39,000  Level Los Angeles Center
Thu 11:32:20 PM 34.9858 -120.2081 125° Southeast 466 536 39,000  Level Los Angeles Center
Thu 11:33:21 PM 34.9106 -120.0775 125° Southeast 466 536 39,000  Level Los Angeles Center
Thu 11:34:48 PM 34.7908 -119.8717 125° Southeast 467 537 39,000  Level Los Angeles Center
Thu 11:35:50 PM 34.7161 -119.7433 125° Southeast 466 536 39,000  Level Los Angeles Center
Thu 11:36:51 PM 34.6425 -119.6161 125° Southeast 463 533 39,000  Level Los Angeles Center
Thu 11:37:53 PM 34.5625 -119.4833 126° Southeast 460 529 39,000  Level Los Angeles Center
Thu 11:38:55 PM 34.4883 -119.3578 126° Southeast 459 528 39,000  Level Los Angeles Center
Thu 11:39:57 PM 34.4144 -119.2325 126° Southeast 457 526 39,000  Level Los Angeles Center
Thu 11:40:59 PM 34.3389 -119.1081 126° Southeast 459 528 39,000  Level Los Angeles Center
Thu 11:42:01 PM 34.2647 -118.9819 125° Southeast 461 531 39,000  Level Los Angeles Center
Thu 11:43:02 PM 34.1739 -118.8303 126° Southeast 463 533 39,000 -341 Level Los Angeles Center
Thu 11:44:04 PM 34.0978 -118.7064 127° Southeast 463 533 38,300 -1,694 Descending Los Angeles Center
Thu 11:45:06 PM 34.0219 -118.5792 126° Southeast 465 535 35,500 -2,516 Descending Los Angeles Center
Thu 11:46:08 PM 33.9458 -118.4528 126° Southeast 466 536 33,100 -2,371 Descending Los Angeles Center
Thu 11:47:10 PM 33.8589 -118.3378 132° Southeast 461 531 30,600 -2,371 Descending Los Angeles Center
Thu 11:48:12 PM 33.7750 -118.2328 134° Southeast 449 517 28,200 -2,468 Descending Los Angeles Center
Thu 11:49:14 PM 33.6856 -118.1150 132° Southeast 441 507 25,500 -2,371 Descending Los Angeles Center
Thu 11:50:16 PM 33.6033 -118.0111 134° Southeast 429 494 23,300 -1,902 Descending Los Angeles Center
Thu 11:51:17 PM 33.5247 -117.9125 134° Southeast 412 474 21,600 -1,776 Descending Los Angeles Center
Thu 11:51:54 PM 33.4667 -117.8333 131° Southeast 385 443 20,400 -1,648 Descending Southern California TRACON
Thu 11:52:48 PM 33.4000 -117.7500 134° Southeast 381 438 19,100 -1,448 Descending Southern California TRACON
Thu 11:53:21 PM 33.3633 -117.7069 136° Southeast 381 438 18,300 -1,263 Descending Los Angeles Center
Thu 11:54:23 PM 33.2928 -117.6175 133° Southeast 372 428 17,100 -1,111 Descending Los Angeles Center
Thu 11:54:42 PM 33.2667 -117.5833 132° Southeast 362 417 16,800 -1,553 Descending Southern California TRACON
Thu 11:55:48 PM 33.1833 -117.5167 146° Southeast 353 406 14,900 -2,095 Descending Southern California TRACON
Thu 11:56:48 PM 33.1000 -117.4500 146° Southeast 355 409 12,400 -2,340 Descending Southern California TRACON
Thu 11:57:28 PM 33.0578 -117.4047 138° Southeast 356 410 11,000 -1,500 Descending Los Angeles Center
Thu 11:57:48 PM 33.0167 -117.3667 142° Southeast 339 390 10,900 -825 Descending Southern California TRACON
Thu 11:58:48 PM 32.9500 -117.3167 148° Southeast 301 346 9,900 -1,316 Descending Southern California TRACON
Thu 11:59:42 PM 32.8833 -117.2667 148° Southeast 295 339 8,400 -1,600 Descending Southern California TRACON
Fri 12:00:33 AM 32.8311 -117.2256 147° Southeast 293 337 7,100 -1,274 Descending Los Angeles Center
Fri 12:01:35 AM 32.7992 -117.1556 118° Southeast 289 333 6,000 -889 Descending Los Angeles Center
Fri 12:02:48 AM 32.7833 -117.0500 100° East 248 285 5,100 -451 Descending Southern California TRACON
Fri 12:03:48 AM 32.7667 -116.9667 103° East 231 266 5,000 -450 Descending Southern California TRACON
Fri 12:04:48 AM 32.7167 -116.9500 164° South 223 257 4,200 -1,000 Descending Southern California TRACON
Fri 12:05:48 AM 32.6833 -117.0000 232° Southwest 213 245 3,000 -850 Descending Southern California TRACON
Fri 12:06:48 AM 32.7000 -117.0500 292° West 175 201 2,500 -600 Descending Southern California TRACON
Fri 12:07:48 AM 32.7167 -117.1000 292° West 144 166 1,800 -908 Descending Southern California TRACON
Fri 12:08:47 AM 32.7217 -117.1408 278° West 143 165 700 -744 Descending Los Angeles Center
Fri 12:09:49 AM 32.7344 -117.1878 288° West 138 159 300 -387 Descending Los Angeles Center
Fri 12:11:00 AM 32.7336 -117.1897 246° West  Level Estimated
Fri 12:18:00 AM 32.7333 -117.1833 246° West  Level FlightAware Approximate

Login

Don't have an account? Register now (free) for customized features, flight alerts, and more!